Location: Mannheim
(49.4880°N, 8.4650°E)
Time: 04:45:50
(UTC+02:00)

ACS3 Solar Sail - Pass Details

Date: 20 September 2024
Orbit: 963 x 1036 km, 97.4° (Epoch: 04 October)

Event Time Altitude Azimuth Distance (km) Brightness Sun altitude
Exits shadow 20:55:13 13° 144° (SE) 2,586 3.5 -14.8°
Maximum altitude 21:00:47 57° 70° (ENE) 1,214 2.0 -15.6°
Drops below altitude 10° 21:07:03 10° 354° (N) 2,843 4.6 -16.6°
Sets 21:09:36 0° 350° (N) 3,793 5.3 -17.0°
